sat.trackr.live / text

‹ back to catalog

UNKNOWN

NORAD 89132

UNKNOWN UNKNOWN UNKNOWN

§ Identity

Operator
Country
Launch date
Launch site
Launch vehicle
Mass (kg)
RCS (m²)

External: N2YO · Heavens-Above

§ Orbital elements

Epoch: 2026-05-19T06:00:43.117920Z

Period
162.15 min
Inclination
63.4140°
Eccentricity
0.2923953
Mean motion
8.88088910 rev/d
Perigee alt
591.7 km
Apogee alt
6,351.8 km
Semi-major
9,849.9 km
B*
7.7811e-4
RAAN
227.1229°
Arg perigee
319.6966°
Mean anomaly
21.9642°
Rev number
33,909

§ Raw data

UNKNOWN1 89132U          26139.25049905  .00000559  00000+0  77811-3 0  99932 89132  63.4140 227.1229 2923953 319.6966  21.9642  8.88088910339099

JSON: /api/v1/satellites/89132 · /tle

For live sub-satellite position, see the globe view (requires WebGL).

§ Visibility from observer

Set your observer location to see the next 7 days of passes ≥ 10°. The values pass through the URL so the page stays shareable.

No JS? Fill the form by hand. The geolocation button needs JavaScript.